Theta_e
311 312 322 326 328 329 329 330 331 332 335 337 340 341 342 344 342 342 342 343 341 337 340 343 341 338 335 341 342 340 341 340 335 328 334 337 339 338 337 337 337 339 339
308 315 319 321 323 324 325 325 326 326 327 329 332 336 339 339 338 340 342 340 339 342 341 341 343 341 337 334 340 339 337 337 335 330 331 334 338 339 334 335 336 336 332
307 312 315 319 319 320 321 321 321 321 321 321 323 326 331 336 339 339 340 341 342 341 340 342 342 342 342 340 337 340 339 336 336 334 333 335 334 339 335 336 337 338 334
306 308 313 315 316 317 318 319 319 319 319 319 319 319 320 324 329 334 337 338 337 338 339 341 340 340 340 342 341 339 340 341 336 335 334 335 335 335 337 337 339 338 336
305 306 311 313 313 314 314 315 316 317 318 318 318 318 317 317 318 321 327 333 336 337 338 337 337 337 337 336 339 341 340 340 340 335 334 335 337 338 339 338 337 338 336
305 304 305 308 310 311 311 311 312 313 313 314 315 316 316 316 316 315 317 320 325 330 333 336 337 334 336 336 337 337 340 341 339 334 332 334 336 338 340 338 334 337 336
303 303 303 304 306 307 307 308 310 311 313 313 313 313 314 314 314 314 314 315 316 315 321 326 331 334 337 339 340 340 340 340 339 337 331 330 335 338 340 338 337 338 336
300 300 300 299 302 303 303 305 307 309 309 309 312 313 313 312 313 313 312 312 314 313 315 317 320 323 327 331 334 335 337 337 337 337 335 331 331 337 339 338 338 338 337
300 299 299 298 298 298 299 301 302 304 304 305 306 308 309 310 312 312 310 311 312 312 314 315 315 316 317 319 323 327 333 331 333 337 336 336 332 334 339 339 338 339 338
299 299 299 298 298 298 298 299 300 300 301 301 302 302 303 303 302 303 309 308 311 313 313 315 315 315 315 315 316 322 324 326 329 327 331 337 336 333 339 339 339 338 337
299 298 298 298 298 298 298 298 298 298 299 299 298 298 299 298 298 298 304 309 311 310 313 314 314 314 314 313 310 310 311 311 315 323 332 332 335 335 334 340 338 336 338
298 298 298 298 298 298 298 298 298 298 297 298 298 298 297 298 298 300 301 302 306 309 310 311 311 310 310 307 307 307 307 307 307 311 313 315 329 335 337 335 339 336 336
298 298 298 297 297 297 297 297 297 297 297 297 297 297 297 297 298 298 297 298 300 302 305 306 306 306 306 306 306 306 306 306 306 306 307 310 318 334 335 335 337 337 337
297 297 297 296 296 296 296 296 297 297 296 296 297 297 297 298 298 296 298 298 298 300 302 304 305 306 306 306 306 305 305 305 305 305 305 306 309 320 327 336 335 335 335
297 296 296 296 296 296 296 296 296 297 297 297 297 297 297 297 297 296 298 298 299 300 300 304 305 306 306 306 305 305 304 304 304 304 304 304 305 307 314 320 327 333 337
296 296 296 296 296 295 296 296 296 296 297 297 297 297 297 297 297 297 298 299 299 298 299 301 301 305 305 305 305 304 304 304 304 304 304 303 303 304 306 312 316 321 325
296 296 295 295 295 295 295 296 296 296 296 296 297 297 297 297 298 297 297 297 299 299 299 299 301 302 303 304 304 304 304 304 304 304 304 304 303 303 303 304 307 312 316
296 295 295 295 295 296 295 295 296 296 296 296 297 297 297 298 297 298 298 297 298 297 297 298 300 301 301 302 304 304 303 303 303 304 304 304 304 303 303 303 304 308 311
295 295 295 296 296 295 295 295 296 296 296 296 296 296 297 297 297 297 297 297 297 298 297 298 298 299 301 301 304 304 303 304 303 304 304 303 303 303 303 302 301 302 303
295 295 296 296 295 295 295 295 295 296 296 296 296 296 296 296 296 297 297 297 297 297 297 297 297 298 299 300 300 300 300 300 300 301 301 303 303 303 302 302 302 302 305
296 296 296 295 295 295 295 295 295 296 296 296 296 296 296 296 296 296 297 297 297 297 297 297 297 297 297 299 300 299 299 299 300 301 302 302 302 301 301 302 302 303 304
296 296 296 296 295 296 296 296 296 296 296 296 296 296 296 296 296 296 297 297 297 297 297 297 297 297 298 299 299 299 298 299 301 302 301 301 301 300 301 301 301 303 302
296 296 296 296 296 296 296 296 296 296 296 296 296 296 297 297 296 297 296 296 297 297 297 297 296 298 298 299 300 299 296 298 296 300 300 300 300 300 299 300 302 302 302
296 296 296 296 296 296 296 296 296 296 296 296 296 296 296 296 296 296 297 296 296 297 297 297 297 297 297 297 298 299 300 299 296 297 299 300 300 299 299 300 301 302 302
296 296 296 296 296 296 296 296 296 297 297 296 296 296 296 296 296 296 296 296 296 296 297 297 297 297 297 297 298 299 299 299 299 296 297 296 299 299 299 299 301 301 301
296 296 296 296 296 296 296 296 297 297 297 297 297 297 297 297 297 296 296 296 297 297 297 297 297 297 297 297 297 297 298 297 296 295 295 294 296 299 299 299 300 301 301
Wind_Speed
30 28 28 29 29 29 29 29 29 29 28 27 26 16 13 11 9 8 7 6 6 5 4 4 3 3 3 3 5 3 5 4 3 4 4 6 7 7 8 8 8 10 8
18 25 22 26 27 27 27 27 27 27 26 26 26 27 24 14 11 8 9 9 9 7 6 7 6 5 4 4 5 5 5 4 3 3 4 7 7 6 7 9 12 10 6
18 17 24 23 24 25 25 26 25 25 25 26 25 25 24 24 23 15 11 10 9 9 9 8 8 8 7 6 6 6 6 6 5 5 6 7 8 7 6 8 13 10 7
16 19 21 22 23 23 24 23 23 23 24 24 24 24 23 23 23 22 20 16 10 9 10 10 11 11 11 9 8 8 8 8 8 8 8 9 8 8 10 10 10 9 9
17 18 20 22 22 22 22 23 24 23 22 23 23 22 22 21 20 21 21 20 17 12 9 8 10 12 12 13 13 11 11 11 11 11 11 11 10 10 12 12 11 10 11
15 19 19 20 21 22 23 23 23 22 23 23 22 23 22 22 20 18 18 18 17 17 14 9 6 9 10 12 14 14 13 13 14 14 14 14 12 13 18 15 14 14 13
18 20 20 20 22 22 23 24 23 23 23 24 22 22 22 22 21 18 17 17 16 16 15 14 13 12 7 7 9 9 13 16 17 17 16 15 14 14 22 20 16 16 14
20 19 21 24 22 23 24 25 23 24 25 26 24 24 24 23 22 20 20 20 17 18 15 15 14 14 13 14 14 10 9 11 15 19 18 17 17 13 22 21 19 19 18
23 24 26 29 30 31 30 25 25 25 26 26 26 25 24 24 23 21 22 21 20 19 17 15 14 14 14 14 12 12 15 11 13 15 18 22 20 20 22 22 21 22 21
25 25 27 28 30 30 31 28 25 25 26 26 24 24 26 25 27 25 22 24 20 22 19 17 16 15 14 15 13 11 8 12 20 13 16 20 23 20 19 24 24 23 23
22 23 25 27 29 29 30 31 30 29 30 30 29 29 30 31 32 30 24 23 23 23 21 19 16 15 12 14 13 10 10 9 10 12 12 15 16 23 24 27 26 25 24
29 28 29 30 29 29 30 32 31 32 35 32 30 31 32 32 31 26 27 26 23 22 21 18 17 17 17 15 13 13 13 11 11 11 10 11 11 12 24 24 28 28 26
24 28 27 28 30 28 28 29 30 31 31 32 33 32 33 32 31 32 34 29 28 24 24 24 22 22 21 18 17 14 13 12 11 11 10 10 8 9 11 27 28 31 28
28 28 30 28 27 34 32 30 29 27 29 30 32 33 34 32 30 36 30 30 30 27 27 27 25 24 20 16 16 16 15 14 13 13 13 10 9 8 9 10 25 29 30
30 29 32 31 36 33 29 35 31 32 34 33 29 29 30 32 38 37 33 30 28 25 26 26 24 21 19 17 15 14 12 13 14 14 14 13 11 11 10 8 15 16 28
28 34 35 37 36 29 39 30 33 33 32 30 30 30 31 36 31 35 33 33 29 28 28 27 26 14 13 13 13 13 12 12 14 15 14 13 12 11 10 9 10 12 17
35 35 41 32 36 36 31 34 33 34 31 32 31 32 31 27 35 33 33 34 29 27 24 26 26 29 23 16 15 14 15 16 17 17 16 15 13 12 12 13 14 13 11
34 36 34 32 33 33 33 32 34 33 34 33 30 32 31 30 28 32 37 31 27 26 25 26 23 26 21 20 20 18 14 15 15 16 17 17 15 16 17 18 17 17 16
34 34 28 37 33 28 35 32 30 30 28 31 30 28 26 27 29 32 32 34 38 34 27 24 27 24 31 24 18 17 17 15 15 16 16 13 14 17 19 20 18 18 19
32 25 36 33 30 34 33 30 29 27 26 28 33 32 32 33 33 33 35 36 34 34 29 26 27 28 24 24 24 21 19 20 21 22 22 22 21 22 22 19 17 18 12
30 35 35 35 34 34 30 28 28 27 28 27 27 30 30 29 31 31 27 30 35 33 34 33 30 29 29 26 20 20 20 21 22 24 22 20 20 19 20 21 17 13 12
33 35 35 35 34 32 30 30 27 27 29 29 29 27 27 29 29 29 25 25 29 31 30 34 32 28 27 22 15 4 2 9 19 20 17 16 19 22 16 21 19 13 10
34 35 36 36 34 34 34 32 30 29 27 25 24 26 28 27 30 28 30 29 28 28 29 31 30 20 14 15 21 8 2 5 1 14 17 18 21 14 15 14 12 11 10
33 32 35 35 35 35 36 33 32 28 26 28 29 29 31 30 30 30 30 28 28 25 30 29 25 22 19 17 19 22 23 11 4 2 9 15 14 17 18 14 14 14 11
32 32 34 35 37 36 35 32 31 30 31 29 30 30 30 30 29 30 29 27 27 27 24 27 28 27 27 23 23 16 15 17 15 3 4 5 15 19 20 18 12 12 14
34 36 35 37 39 37 36 35 32 33 34 31 31 30 28 28 27 28 28 26 26 25 25 26 27 25 24 26 24 25 19 7 6 3 3 3 5 16 17 18 19 9 6
Wind_Direction
357 4 7 14 20 24 25 25 23 20 17 14 14 2 343 332 326 323 308 300 300 290 268 254 259 261 219 173 149 154 142 151 130 131 141 142 135 142 149 154 156 127 122
352 9 11 14 18 21 22 22 21 17 14 13 10 9 12 352 319 317 311 299 284 283 277 250 241 244 248 228 220 212 215 207 183 159 146 151 163 163 161 177 153 151 149
16 14 15 12 15 17 20 21 22 18 16 14 9 7 4 5 7 358 335 304 285 278 273 265 259 243 237 235 230 231 225 219 209 198 179 176 172 182 190 154 154 162 175
13 18 14 13 13 13 14 14 13 13 12 11 8 7 3 1 358 1 357 359 316 291 276 265 257 253 245 235 232 229 230 232 228 222 212 207 200 207 199 182 171 168 165
27 27 19 13 10 8 10 7 7 360 359 0 0 0 0 358 356 353 350 355 355 359 327 293 277 260 255 249 239 229 233 234 238 235 229 226 225 221 212 196 186 180 170
21 18 10 1 356 360 358 356 353 352 355 350 348 344 348 350 350 345 347 346 348 352 335 330 314 270 271 260 252 243 238 236 241 242 240 237 225 247 214 201 192 187 179
18 9 6 358 354 349 346 343 344 342 341 340 337 335 333 333 335 338 336 332 337 337 335 335 314 293 291 254 253 246 242 247 240 243 243 243 231 221 207 204 196 187 187
15 9 0 359 357 354 350 345 343 338 336 336 335 333 325 321 318 319 323 324 316 321 323 321 320 318 305 284 273 282 271 254 250 252 251 249 232 223 213 213 199 190 186
356 354 350 346 345 343 342 341 335 333 332 331 327 327 329 329 329 318 310 311 307 311 313 310 308 309 311 308 300 292 266 273 261 254 243 247 243 232 228 218 207 194 192
352 350 347 343 342 340 340 336 333 331 331 328 323 322 323 324 323 323 316 303 305 305 299 303 304 304 304 307 305 308 297 273 263 273 268 244 246 241 231 217 211 203 197
350 345 343 341 338 335 334 330 330 326 326 326 326 324 322 322 321 318 316 317 302 301 293 289 293 305 301 288 289 289 289 291 282 286 270 277 257 245 244 225 220 212 204
346 347 340 332 331 328 325 322 322 320 320 320 320 320 322 318 320 319 315 307 311 303 294 290 285 290 291 291 286 285 291 303 307 302 297 301 282 256 246 238 223 218 211
344 338 335 330 326 324 322 318 314 311 312 312 312 312 314 313 310 314 313 311 303 306 302 285 288 288 285 284 283 288 288 300 314 317 310 302 314 303 296 238 228 222 214
341 335 336 334 331 326 316 316 319 316 313 307 303 303 305 304 304 309 308 309 306 301 304 296 280 278 271 272 280 288 291 294 309 316 318 311 298 309 311 266 235 229 221
339 340 336 331 329 324 327 320 314 313 307 300 297 298 298 297 299 300 300 300 302 303 301 302 279 275 264 260 269 283 296 301 300 312 317 315 303 301 316 310 291 269 224
341 332 337 331 332 321 324 322 318 311 312 305 299 294 293 289 295 297 298 294 291 300 301 296 284 267 261 258 273 277 283 301 304 304 318 322 314 298 299 312 311 323 323
340 340 334 329 327 322 323 321 318 311 308 304 303 303 297 288 292 289 291 296 289 293 292 302 290 266 255 259 259 262 273 290 294 296 300 312 313 310 306 302 299 313 309
337 336 330 335 336 329 324 324 317 310 309 308 307 302 296 293 288 289 286 281 282 289 295 289 296 272 254 253 253 259 267 276 280 283 291 294 303 307 306 311 307 307 307
339 335 345 337 337 340 331 326 321 319 316 311 307 307 304 298 292 287 278 284 285 286 283 282 281 294 265 252 246 245 257 261 269 276 280 283 295 300 301 304 303 305 298
341 349 341 338 339 336 332 326 322 319 315 307 308 307 300 296 291 282 276 277 278 279 271 273 279 277 271 244 243 246 252 260 264 268 273 277 286 293 295 293 291 305 305
349 345 343 341 341 337 331 325 321 315 311 304 300 301 297 296 296 289 286 278 274 268 273 270 269 274 274 258 236 239 250 259 263 266 264 268 284 287 285 284 294 275 284
350 347 346 345 340 336 330 324 315 309 306 300 296 293 291 290 287 283 281 280 270 262 257 266 262 255 262 265 228 176 233 261 248 250 255 269 276 285 290 278 272 258 283
351 350 346 341 338 337 332 327 322 316 310 307 304 297 293 290 289 279 278 275 273 266 258 263 255 228 238 259 247 208 125 224 196 242 247 256 270 263 299 305 264 268 285
347 345 347 341 338 337 335 331 326 318 312 310 305 302 296 292 288 284 277 267 268 267 261 257 249 248 246 247 261 244 244 239 187 258 239 234 250 278 295 291 279 287 285
347 346 346 344 341 338 336 332 327 319 314 310 307 302 300 293 287 283 279 267 264 260 257 251 248 246 253 243 243 247 243 240 235 167 236 263 253 266 272 278 287 271 285
350 350 350 347 341 340 338 338 335 333 329 325 322 315 307 298 289 280 273 269 259 257 251 253 255 247 244 241 241 246 240 215 194 167 223 229 212 265 266 272 277 265 259